Regional Weather Roundup
Issued by NWS Upton, NY

Home | Current Version | Previous Version | Text Only | Print | Product List | Glossary On
Versions: 1 2 3 4 5 6 7 8 9 10 11 12 13 14 15 16 17 18 19 20 21 22 23 24 25 26 27 28 29 30 31 32 33 34 35 36 37 38 39 40 41 42 43 44 45 46 47 48 49 50
000
ASUS41 KOKX 261405
RWROKX

REGIONAL WEATHER ROUNDUP
NATIONAL WEATHER SERVICE NEW YORK NY
900 AM EST FRI DEC 26 2014

NOTE: "FAIR" INDICATES FEW OR NO CLOUDS BELOW 12,000 FEET WITH NO
SIGNIFICANT WEATHER AND/OR OBSTRUCTIONS TO VISIBILITY.

NYZ071-072-176-178-NJZ106-104-261500-
NEW YORK CITY METRO AREA


CITY           SKY/WX    TMP DP  RH WIND       PRES   REMARKS
CENTRAL PARK   SUNNY     41  27  57 VRB5      30.27R
LAGUARDIA APRT MOSUNNY   42  28  57 W12       30.25R
KENNEDY INTL   MOSUNNY   43  29  57 W13       30.26R
NEWARK/LIBERTY MOSUNNY   40  29  64 W12       30.26R WCI  33
BRNX BOT. GARD   N/A    N/A N/A N/A W12       30.27R
TETERBORO      SUNNY     39  29  67 VRB3      30.25R
$$

NYZ177-179-078>081-261500-
LONG ISLAND NEW YORK

CITY           SKY/WX    TMP DP  RH WIND       PRES   REMARKS
FARMINGDALE    SUNNY     42  30  62 W10       30.24R
ISLIP          MOSUNNY   41  31  67 W8        30.22R
SHIRLEY        SUNNY     41  31  67 W8        30.24R
WESTHAMPTON    SUNNY     41  31  67 W6        30.24R
MONTAUK POINT    N/A     44  36  73 W8        30.22R
$$

NYZ052-065-067-261500-
HUDSON VALLEY

CITY           SKY/WX    TMP DP  RH WIND       PRES   REMARKS
WHITE PLAINS   SUNNY     39  28  64 W8        30.22R WCI  33
NEWBURGH       MOSUNNY   37  30  75 W12       30.23R WCI  30
MONTGOMERY     SUNNY     40  28  62 W7        30.21R
POUGHKEEPSIE   SUNNY     36  30  79 CALM      30.22R
ALBANY         CLOUDY    41  28  60 NW10      30.22R
$$

NJZ001-105-106-008-010-013-015-019>022-104-261500-
NEW JERSEY

CITY           SKY/WX    TMP DP  RH WIND       PRES   REMARKS
NEWARK/LIBERTY MOSUNNY   40  29  64 W12       30.26R WCI  33
TETERBORO      SUNNY     39  29  67 VRB3      30.25R
CALDWELL       SUNNY     37  28  70 CALM      30.26R
MORRISTOWN     SUNNY     41  30  65 W7        30.27R
SOMERVILLE     SUNNY     36  30  79 CALM      30.26R
SUSSEX         SUNNY     34  30  85 SW3       30.24R
ANDOVER        NOT AVBL
TRENTON        SUNNY     39  28  64 NW7       30.27S WCI  34
MILLVILLE      SUNNY     40  32  73 NW5       30.32R
ATLANTIC CITY  SUNNY     40  30  67 NW9       30.31R WCI  34
WRIGHTSTOWN    SUNNY     40  30  69 W6        30.27R
TOMS RIVER     SUNNY     39  30  70 W9        30.28R WCI  33
BELMAR         SUNNY     39  27  60 W9        30.26S WCI  33
$$

PAZ047>061-062-071-261500-
EASTERN PENNSYLVANIA

CITY           SKY/WX    TMP DP  RH WIND       PRES   REMARKS
PHILADELPHIA   SUNNY     40  29  64 W9        30.31R WCI  34
ALLENTOWN      SUNNY     38  28  67 W5        30.29R WCI  34
SCRANTON       SUNNY     35  27  72 SW7       30.25R WCI  29
$$

CTZ002-004>006-009-010-012-RIZ004-006-007-MAZ004-011-015-261500-
SOUTHERN NEW ENGLAND
 IN CT

CITY           SKY/WX    TMP DP  RH WIND       PRES   REMARKS
BRADLEY INTL   PTSUNNY   44  29  55 NW8       30.18R
HARTFORD       SUNNY     39  31  72 S5        30.21R
DANBURY        SUNNY     35  28  75 CALM      30.23R
WTRBRY/OXFORD  SUNNY     37  27  65 CALM      30.22R
BRIDGEPORT     SUNNY     42  31  64 W5        30.23R
MERIDEN        SUNNY     35  31  85 CALM      30.23R
NEW HAVEN      SUNNY     44  30  57 NW6       30.22R
CHESTER        FAIR      39  32  75 W5        30.21R
GROTON         SUNNY     41  31  67 W8        30.20S
WILLIMANTIC    SUNNY     40  30  67 SW5       30.19R

 IN RI

CITY           SKY/WX    TMP DP  RH WIND       PRES   REMARKS
PROVIDENCE     MOSUNNY   41  30  65 W9        30.19R
BLOCK ISLAND   SUNNY     45  36  70 W12       30.20R
WESTERLY       SUNNY     43  30  60 W7        30.21R

 IN MA

CITY           SKY/WX    TMP DP  RH WIND       PRES   REMARKS
BOSTON         MOSUNNY   43  30  60 W14G21    30.15R
WORCESTER      SUNNY     38  29  70 W12       30.13R WCI  30
WESTFIELD      PTSUNNY   43  28  55 NW8       30.17R
PROVINCETOWN   SUNNY     43  32  65 W14G23    30.16R
NANTUCKET      SUNNY     46  32  58 W15       30.18R
$$

ANZ330-335-338-340-345-350-353-355-261500-
COASTAL MARINE OBSERVATIONS


STATION/POSITION TIME  SKY/WX   TEMP    WIND        PRES    VSBY  WAVE
                                AIR SEA DIR/SP/G                  HT/PER
                 (UTC)          (F)     (DEG/KT/KT) (MB)    (MI)  (FT/S)
NY HARB ENTRANCE 1400            42 45  280/ 17/ 21 1024.6          3/ 3
4S FIRE IS       1400               47                N/A           4/ 5
20S FIRE ISLAND  1300            45 49              1024.0          4/ 4
23SW MTP         1400                                 N/A           4/ 6
HUDSON CANYON    1300            47 55  310/ 16/ 19 1023.2          6/ 6
EXECUTION ROCKS  1400            48 42  260/ 10/ 14   N/A
WESTERN LI SOUND 1400            41     250/ 14/ 16   N/A           1/ 2
CENTRAL LI SOUND 1300            42 44  270/ 14/ 16   N/A           2/ 4
EASTERN LI SOUND NOT AVBL
ROBBINS REEF     1400            40                 1023.4
$$


>>>>>>>>>>>>>>>>>>>>>>>>>>>> KEY <<<<<<<<<<<<<<<<<<<<<<<<<<<
>                                                          <
>     SKY/WX - SKY CONDITION/PRESENT WEATHER               <
>     TMP    - TEMPERATURE IN FAHRENHEIT                   <
>     DP     - DEWPOINT IN FAHRENHEIT                      <
>     RH     - RELATIVE HUMIDITY IN PERCENT                <
>     WIND   - DIRECTION AND SPEED IN MPH                  <
>     PRES   - MEAN SEA LEVEL PRESSURE IN INCHES OF HG     <
>     WCI    - WIND CHILL INDEX                            <
>     VSB    - VISIBILITY IN MILES                         <
>     HX     - HEAT INDEX                                  <
>     TC     - TEMPERATURE IN CELSIUS                      <
>     VRB    - VARIABLE WIND DIRECTION                     <
>                                                          <
>>>>>>>>>>>>>>>>>>>>>>>>>>>> KEY <<<<<<<<<<<<<<<<<<<<<<<<<<<




USA.gov is the U.S. government's official web portal to all federal, state and local government web resources and services.